RTU MIREA 1 (RS51S)

Last updated on Sun Nov 16 2025 00:04:14 GMT+0000 (Coordinated Universal Time)

1 61785U 24199BC 25319.52696848 .00036891 00000+0 86483-3 0 9998 2 61785 97.3256 187.8803 0012202 353.2627 6.8454 15.41912399101352
UTC large
Height (km)
Speed (km/s)
/
Latitude / Longitude
Inclination (degrees)
Orbital Period (minutes)
Azimuth
Elevation
Range (km)
Doppler Factor

Next 0 passes for location: London (51.5072 / 0.1276)

Sorry there are no passes over London.